Home   Weather   Versoix   Past weeks

Flag for Switzerland Past Weather in Versoix, Geneva, Switzerland — Yesterday and Last 2 Weeks

Now
65 °F

Mild.


Feels Like: 65 °F
Forecast: 50 / 70 °F
Wind: 2 mph from Northwest

Location: Geneve-Cointrin

Current Time: Sep 25, 2016 at 10:53:37 PM

Latest Report: Sep 25, 2016 at 10:00 PM


Visibility: N/A

Pressure: 30.15 "Hg

Humidity: 62%

Dew Point: 51 °F

Location of VersoixLocation

Past Weather in Versoix — Graph

°F

Versoix Temperature Yesterday

Maximum temperature yesterday: 70 °F (at 5:00 PM)
Minimum temperature yesterday: 50 °F (at 6:00 AM)
Average temperature yesterday: 59 °F

High & Low Weather Summary for the Past Weeks

 TemperatureHumidityPressure
High84 °F (Sep 12, 4:00 PM)96% (Sep 19, 7:00 AM)30.32 "Hg (Sep 19, 7:00 AM)
Low47 °F (Sep 22, 7:00 AM)32% (Sep 13, 6:00 PM)29.76 "Hg (Sep 14, 8:00 PM)
Average63 °F74%30.05 "Hg
* Reported Sep 10 8:00 PM — Sep 25 8:00 PM, Versoix, Weather by CustomWeather, © 2016

Note: Actual official high and low records may vary slightly from our data, if they occured in-between our weather recording intervals... More about our weather records

Advertising

Versoix Weather History for the Previous 24 Hours

Scroll right to see more
 ConditionsComfort  
Time TempWeatherWind HumidityBarometerVisibility
8:00 PM
Sun, Sep 25
65 °FPassing clouds.3 mph67%30.13 "Hg22 mi
7:00 PM69 °FMild.3 mph52%30.09 "HgN/A
6:00 PM73 °FMild.6 mph39%30.06 "HgN/A
5:00 PM76 °FScattered clouds.6 mph35%30.05 "Hg25 mi
4:00 PM76 °FMild.10 mph33%30.06 "HgN/A
3:00 PM75 °FMild.9 mph36%30.07 "HgN/A
2:00 PM70 °FPassing clouds.2 mph56%30.11 "Hg18 mi
1:00 PM68 °FMild.2 mph59%30.13 "HgN/A
12:00 PM67 °FMild.5 mph66%30.15 "HgN/A
11:00 AM64 °FPassing clouds.2 mph70%30.17 "Hg10 mi
10:00 AM60 °FCool.1 mph82%30.19 "HgN/A
9:00 AM55 °FCool.1 mph88%30.21 "HgN/A
8:00 AM51 °FFog.2 mph93%30.22 "Hg5 mi
7:00 AM50 °FCool.2 mph91%30.21 "HgN/A
6:00 AM51 °FCool.1 mph95%30.21 "HgN/A
5:00 AM51 °FCool.1 mph95%30.21 "HgN/A
4:00 AM53 °FCool.3 mph92%30.20 "HgN/A
3:00 AM54 °FCool.3 mph90%30.21 "HgN/A
2:00 AM54 °FCool.3 mph89%30.21 "HgN/A
1:00 AM56 °FCool.1 mph90%30.21 "HgN/A
12:00 AM58 °FCool.1 mph85%30.21 "HgN/A
11:00 PM
Sat, Sep 24
59 °FPassing clouds.1 mph85%30.21 "Hg9 mi
10:00 PM58 °FCool.2 mph85%30.21 "HgN/A
Weather by CustomWeather, © 2016

See weather overviewHow to use our weather pages